Location: Newark
(21.1200°N, 73.4000°E)
Time: 18:05:31
(UTC+00:00)

Courier 1B Rocket - Pass Details

Date: 23 January 2020
Orbit: 920 x 1202 km, 28.2° (Epoch: 22 February)

Event Time Altitude Azimuth Distance (km) Brightness Sun altitude
Rises 03:40:08 0° 209° (SSW) 4,061 8.3 22.9°
Reaches altitude 10° 03:43:53 10° 194° (SSW) 3,070 8.0 23.7°
Maximum altitude 03:49:09 20° 149° (SSE) 2,343 8.5 24.7°
Drops below altitude 10° 03:54:13 10° 105° (ESE) 2,947 8.9 25.7°
Sets 03:57:42 0° 89° (E) 3,852 8.9 26.3°
